User: anonymous   Login
Location: Betra
(48.4113°N, 8.6634°E)
Time: 06:46:55
(UTC+00:00)
Language:

Cosmos 968 Rocket - Orbit

View from above orbital plane
View from above orbital plane
View from above satellite
View from above satellite

Ground track
Ground track

The orbit data is extracted from the following two-line orbital elements,

1 10521U 77119B   24202.92560856  .00000763  00000-0  24207-3 0  9999
2 10521  74.0269 150.5333 0022060 252.4779 107.3966 14.41611584445094
Epoch (UTC): 20 July 2024 22:12:52
Eccentricity: 0.0022060
inclination: 74.0269°
perigee height: 737 km
apogee height: 769 km
right ascension of ascending node: 150.5333°
argument of perigee: 252.4779°
revolutions per day: 14.41611584
mean anomaly at epoch: 107.3966°
orbit number at epoch: 44509

The dashed part of the orbit path shows where the satellite is in the earth's shadow,  

DLR